User: anonymous   Login
Location: Maddington
(51.2000°N, 1.9167°W)
Time: 05:44:58
(UTC+00:00)
Language:

Meteor 1-24 Rocket - Orbit

View from above orbital plane
View from above orbital plane
View from above satellite
View from above satellite

Ground track
Ground track

The orbit data is extracted from the following two-line orbital elements,

1 08800U 76032B   20338.97991611 -.00000023  00000-0 -19286-4 0  9990
2 08800  81.2523  65.8675 0094016 200.7445 158.9901 14.10151896296374
Epoch (UTC): 03 December 2020 23:31:04
Eccentricity: 0.0094016
inclination: 81.2523°
perigee height: 791 km
apogee height: 927 km
right ascension of ascending node: 65.8675°
argument of perigee: 200.7445°
revolutions per day: 14.10151896
mean anomaly at epoch: 158.9901°
orbit number at epoch: 29637

The dashed part of the orbit path shows where the satellite is in the earth's shadow,  

DLR